Regional Weather Roundup
Issued by NWS Goodland, KS

Home | Current Version | Previous Version | Graphics & Text | Print | Product List | Glossary On
Versions: 1 2 3 4 5 6 7 8 9 10 11 12 13 14 15 16 17 18 19 20 21 22 23 24 25 26 27 28 29 30 31 32 33 34 35 36 37 38 39 40 41 42 43 44 45 46 47 48 49 50
249
ASUS43 KGLD 252308
RWRGLD

GOODLAND FORECAST AREA HOURLY WEATHER ROUNDUP
NATIONAL WEATHER SERVICE GOODLAND KS
500 PM MDT TUE APR 25 2017

...OFFICIAL OBSERVATIONS...

CITY           SKY/WX    TMP DP  RH WIND       PRES   REMARKS
GOODLAND KS    CLOUDY    56  40  55 NE15G22   29.56R
HILL CITY KS   CLOUDY    51  43  74 N14       29.59R
IMPERIAL NEB   CLOUDY    51  41  68 NE20      29.61R
MCCOOK NEB     CLOUDY    50  42  74 NE15      29.60R
AKRON CO       MOSUNNY   54  38  54 N24G33    29.57R
BURLINGTON CO  NOT AVBL
LIMON CO       CLOUDY    43  38  82 S8        29.63R
$$

...UNOFFICIAL OBSERVATIONS...

CITY           SKY/WX    TMP DP  RH WIND       PRES   REMARKS
LENORA KS        N/A     49  32  52 MISG        N/A
NORTON KS      CLOUDY    48  37  66 N17       29.59R
SHARON SPRINGS   N/A     58  45  62 SE12G18     N/A
TRENTON NEB      N/A     50  32  50 E9          N/A
KIT CARSON CO    N/A     45  40  82 MISG        N/A
YUMA CO        FAIR      54  41  62 NE15      29.56R
$$




USA.gov is the U.S. government's official web portal to all federal, state and local government web resources and services.